Location: UBC Liquid-Mirror Observatory
(49.2876°N, 122.5728°W)
Time: 01:42:23
(UTC-07:00)

Daily predictions for brighter satellites

Satellite Brightness Start Highest point End
(mag) Time Altitude Azimuth Time Altitude Azimuth Time Altitude Azimuth
Cosmos 614 Rocket 4.5 00:03:18 32° SSE 00:05:01 43° ESE 00:09:56 10° NE
Cosmos 1733 3.4 00:04:28 10° N 00:08:20 60° ENE 00:09:20 43° SE
ISS -3.5 00:08:05 61° SW 00:08:30 73° SSE 00:11:47 10° ENE
Cosmos 1954 Rocket 4.1 00:07:26 22° SSW 00:10:57 77° WNW 00:16:18 10° NNE
Helios 1A Rocket 4.3 00:11:35 10° NE 00:14:57 25° E 00:15:32 24° ESE
Cosmos 1470 2.7 00:17:08 10° NNW 00:21:01 74° W 00:21:59 49° SSW
Cosmos 1656 Rocket 3.7 00:16:04 10° NNW 00:21:46 74° WSW 00:24:17 34° SSE
Cosmos 1953 4.0 00:20:15 10° NNW 00:23:33 25° W 00:25:06 20° WSW
H-2A R/B 4.0 00:21:14 11° SW 00:24:20 18° W 00:27:45 10° NW
Cosmos 1741 Rocket 4.0 00:24:01 34° S 00:26:23 76° ESE 00:31:44 10° NNE
Cosmos 2228 Rocket 4.2 00:22:45 10° N 00:26:48 34° ENE 00:28:31 25° ESE
Cosmos 2084 4.1 00:25:46 10° WNW 00:29:36 38° SW 00:30:08 36° SW
Cosmos 2221 2.4 00:26:34 10° N 00:30:56 80° E 00:32:11 45° SSE
Lacrosse 5 rocket 3.5 00:27:45 10° WNW 00:31:22 28° N 00:35:09 10° ENE
H-2A R/B 2.3 00:28:42 10° NNE 00:32:33 64° ESE 00:33:16 52° SSE
CZ-2C R/B 4.1 00:28:18 10° NE 00:32:53 25° E 00:34:55 21° ESE
Cosmos 2369 Rocket 4.4 00:31:19 10° WNW 00:33:47 13° W 00:36:15 10° WSW
Cosmos 2026 Rocket 4.0 00:31:37 33° SSE 00:34:27 69° E 00:40:30 10° NNE
Cosmos 2195 Rocket 4.5 00:31:46 32° S 00:34:47 78° E 00:41:04 10° NNE
USA 238 DEB 3.7 00:30:01 22° SSW 00:34:48 73° SE 00:41:51 10° NE
USA 238 3.7 00:30:09 23° SSW 00:34:53 72° SE 00:41:56 10° NE
Okean 3 Rocket 3.5 00:34:09 43° SSW 00:35:36 86° WNW 00:40:02 10° N
Cosmos 1627 Rocket 4.4 00:33:01 33° S 00:35:58 79° E 00:42:07 10° NNE
Landsat 5 3.3 00:35:21 50° SSE 00:36:18 81° ENE 00:40:21 10° NNW
Cosmos 1076 Rocket 4.0 00:36:20 38° SE 00:37:18 45° E 00:41:22 10° NNE
Cosmos 2369 4.4 00:32:03 10° NNW 00:37:35 50° NE 00:41:21 20° ESE
Cosmos 1932 4.4 00:35:13 19° SW 00:39:50 86° NW 00:46:09 10° NE
Cosmos 1850 Rocket 4.1 00:42:53 29° SSW 00:45:34 76° WNW 00:50:49 10° NNE
Cosmos 405 Rocket 3.6 00:46:56 32° ESE 00:47:26 34° E 00:50:54 10° NNE
Lacrosse 4 Rocket 3.1 00:44:22 10° WSW 00:48:00 30° NW 00:51:39 10° NNE
Meteor 1-16 Rocket 4.2 00:42:54 10° NNW 00:48:27 75° W 00:50:53 36° S
Lacrosse 5 3.1 00:45:52 10° NW 00:50:42 43° NNE 00:55:31 10° E
Cosmos 1340 3.0 00:51:25 42° SW 00:52:22 56° WNW 00:56:08 10° N
COSMOS 2487 2.4 00:53:24 63° SSW 00:53:56 85° WNW 00:57:35 10° NNE
SL-8 R/B 3.9 00:49:48 10° W 00:54:28 49° SSW 00:55:19 44° S
SL-23 DEB 3.3 00:54:18 63° SSW 00:54:38 70° SSE 00:57:46 10° ENE
Cosmos 1607 3.9 00:51:22 29° SSW 00:54:46 76° SE 01:01:00 10° NE
NOSS 3-3 (A) 4.4 00:49:49 10° NW 00:57:09 84° SW 01:02:26 23° SE
NOSS 3-3 (C) 4.4 00:49:56 10° NW 00:57:17 84° SW 01:02:36 23° SE
Cosmos 1689 Rocket 2.8 00:57:42 47° W 00:57:42 47° W 01:00:51 10° NNW
ALOS 2 3.0 00:56:46 40° SSW 00:57:56 51° W 01:02:15 10° NNW
COSMOS 2406 3.5 00:56:47 22° SW 01:00:32 63° WNW 01:06:16 10° NNE
Cosmos 2278 3.7 00:55:31 10° NNW 01:01:13 80° ENE 01:04:07 30° SE
Cosmos 1980 Rocket 4.1 01:00:29 10° NNW 01:05:13 27° NE 01:09:57 10° ESE
Cosmos 468 Rocket 4.0 01:02:26 10° NNW 01:07:44 74° WSW 01:09:41 39° S
NOSS 3-2 (C) 4.0 01:07:00 33° SSE 01:09:14 45° ESE 01:15:34 10° NE
Cosmos 1707 3.6 01:08:22 34° WSW 01:09:31 43° WNW 01:13:18 10° N
Cosmos 1814 Rocket 4.0 01:06:39 10° NNW 01:11:56 77° WSW 01:14:00 38° S
Cosmos 1553 Rocket 4.0 01:06:47 10° NNW 01:13:05 75° W 01:16:07 33° S
Cosmos 1408 Rocket 3.6 01:11:56 44° SSW 01:13:18 77° WNW 01:17:48 10° N
CENTAUR R/B 4.4 01:11:26 11° SE 01:13:37 13° ESE 01:16:25 10° ENE
Cosmos 1818 3.5 01:15:38 10° NW 01:21:08 75° SW 01:23:37 33° SSE
MOS 1-B Rocket 4.5 01:17:03 26° SSE 01:21:53 83° ENE 01:28:35 10° NNW
Cosmos 2315 Rocket 4.4 01:20:14 10° N 01:26:31 57° ENE 01:30:21 24° SSE
Cosmos 2082 Rocket 3.2 01:24:59 25° SE 01:26:58 32° ESE 01:31:56 10° NE
Cosmos 1697 Rocket 3.4 01:21:35 10° NNW 01:27:08 50° NE 01:32:00 13° SE
Cosmos 1486 Rocket 4.1 01:25:33 38° S 01:27:24 63° ESE 01:32:34 10° NNE
Aureole 1 Rocket 4.5 01:24:00 10° N 01:27:51 36° ENE 01:32:16 12° SE
CZ-4B R/B 3.3 01:31:49 20° W 01:32:07 20° W 01:34:57 10° NW
ASTEX 1 4.5 01:30:05 10° NNE 01:34:41 35° E 01:37:01 23° SE
Meteor 1-24 Rocket 4.2 01:32:23 29° SW 01:35:28 59° WNW 01:41:21 10° N
S3M 4.5 01:32:32 10° NNW 01:38:32 49° W 01:41:21 29° SSW
Cosmos 1743 Rocket 3.5 01:37:14 45° SSW 01:38:35 86° W 01:43:04 10° N
Cosmos 1151 Rocket 3.2 01:35:48 10° N 01:40:04 63° ENE 01:41:38 36° SE
Cosmos 1833 Rocket 3.8 01:38:11 24° SE 01:40:22 32° ESE 01:45:18 10° NE
CZ-4C R/B 2.2 01:38:16 34° SSW 01:40:42 73° SE 01:46:52 10° NE
Timation 2 Rocket 4.2 01:41:20 31° SSW 01:44:52 72° ESE 01:51:39 10° NNE
ISS -2.6 01:41:51 10° W 01:45:04 54° N 01:48:18 10° ENE
Cosmos 2266 Rocket 4.0 01:43:40 32° S 01:46:55 88° E 01:53:24 10° N
Cosmos 1674 3.4 01:47:35 35° SE 01:48:29 42° E 01:52:03 10° NNE
Helios 1A Rocket 4.0 01:46:35 10° N 01:50:19 35° WNW 01:51:53 26° WSW
Cosmos 1726 4.3 01:48:59 10° NNE 01:51:49 20° ENE 01:54:23 11° ESE
Cosmos 1763 Rocket 3.6 01:46:59 10° NNW 01:52:17 65° WSW 01:54:25 35° S
ATLAS 3B R/B 4.3 01:47:12 10° W 01:54:07 36° NNW 02:00:47 10° NE
Cosmos 2151 3.7 01:53:03 30° SE 01:54:36 43° E 01:58:39 10° NNE
NOSS 3-2 (A) 3.5 01:51:03 26° SW 01:54:50 88° NW 02:01:43 10° NE
Cosmos 1500 Rocket 3.5 01:55:36 43° SSW 01:56:59 80° W 02:01:20 10° N
Cosmos 1378 4.3 01:56:39 28° WSW 01:57:41 33° WNW 02:01:11 10° N
Cosmos 2058 4.4 01:55:58 21° SE 01:57:47 28° E 02:01:23 10° NNE
Meteor 2-2 Rocket 4.2 01:52:09 10° NNW 01:57:49 73° W 02:00:35 32° S
Cosmos 1867 3.8 01:56:41 34° S 01:58:53 59° ESE 02:04:17 10° NE
COS B Rocket 3.9 01:57:47 10° NNE 01:59:38 24° ENE 01:59:38 24° ENE
Cosmos 1328 Rocket 4.4 01:57:43 10° NNW 02:01:44 37° W 02:02:51 31° SW
Cosmos 540 Rocket 3.9 01:56:48 10° NNW 02:01:56 59° ENE 02:06:01 16° SE
CZ-2C R/B 3.3 02:01:31 33° S 02:04:03 66° WSW 02:09:45 10° NNW
Meteor 1-21 Rocket 4.2 02:01:20 32° SSW 02:04:08 80° WNW 02:09:52 10° N
SL-16 R/B 4.1 01:59:17 10° NNW 02:04:15 29° NE 02:09:09 10° ESE
Cosmos 2228 Rocket 4.3 02:01:10 10° NNW 02:04:54 27° W 02:06:00 24° WSW
Cosmos 1656 3.7 02:01:38 10° NNW 02:07:21 72° WSW 02:10:31 27° SSE
USA 32 4.0 02:05:23 10° N 02:10:41 83° E 02:13:28 29° S
Lacrosse 5 rocket 2.7 02:07:21 10° NW 02:11:26 43° NNE 02:15:42 10° E
Cosmos 1515 Rocket 4.4 02:07:39 10° NNW 02:11:46 38° W 02:13:01 31° SW
Cosmos 1354 Rocket 4.0 02:09:51 33° SSW 02:12:18 81° ESE 02:17:39 10° NNE
CZ-2C R/B 3.1 02:08:02 10° N 02:13:31 57° WNW 02:16:26 27° SW
Cosmos 332 Rocket 4.5 02:09:04 10° NNW 02:13:47 52° ENE 02:18:07 12° SE
SS 1 4.4 02:12:53 10° NW 02:15:44 89° SW 02:16:26 50° SE
Cosmos 2322 Rocket 3.7 02:13:02 10° NNW 02:18:15 36° NE 02:23:25 10° ESE
Genesis I 3.4 02:14:38 10° NW 02:18:31 51° WSW 02:19:17 43° SSW
USA 215 3.9 02:13:24 10° ENE 02:19:28 39° SE 02:22:35 25° S
Cosmos 1503 Rocket 4.0 02:17:27 32° SSW 02:20:03 88° ESE 02:25:25 10° NNE
SL-08 R/B 4.4 02:16:03 11° SE 02:20:22 44° ENE 02:25:02 10° N
Cosmos 1908 3.9 02:23:15 10° NNW 02:26:52 39° W 02:27:42 34° SW
Cosmos 1437 4.1 02:27:04 25° SE 02:28:15 33° E 02:31:19 10° NNE
Cosmos 841 Rocket 4.3 02:25:04 10° NW 02:29:49 36° WSW 02:31:36 28° SW
Meteor 2-11 Rocket 4.4 02:25:20 10° NNW 02:31:30 79° W 02:35:26 24° S
Cosmos 2242 Rocket 4.1 02:29:17 10° N 02:33:40 56° ENE 02:36:47 18° SSE
Lacrosse 5 1.7 02:28:55 10° WNW 02:33:58 74° SW 02:39:00 10° SE
Cosmos 1437 Rocket 3.3 02:31:11 10° NNW 02:34:57 43° W 02:36:00 35° SW
Cosmos 405 3.2 02:36:53 10° NNW 02:40:24 53° W 02:41:24 39° SSW
Cosmos 1300 2.6 02:43:15 10° NNW 02:47:06 74° W 02:48:50 31° S
Cosmos 1805 Rocket 3.5 02:45:29 29° SSW 02:47:41 86° W 02:52:10 10° N
Cosmos 1538 Rocket 4.2 02:44:18 10° NNW 02:49:32 75° ENE 02:54:47 10° SSE
Cosmos 1980 Rocket 2.1 02:44:08 10° NNW 02:49:45 69° WSW 02:54:28 15° SSE
Cosmos 2360 Rocket 4.3 02:45:15 10° NNW 02:50:02 27° NE 02:54:48 10° ESE
ERS-2 2.5 02:46:26 10° NNE 02:50:07 59° ESE 02:51:56 27° S
Cosmos 1441 Rocket 4.1 02:48:54 27° WSW 02:50:31 40° WNW 02:54:18 10° N
BREEZE-M DEB (TANK) 2.5 02:43:31 10° W 02:51:12 88° N 02:53:58 10° E
Cosmos 1707 Rocket 3.8 02:53:06 10° NNW 02:57:22 52° W 02:59:29 27° SSW
Cosmos 1633 Rocket 3.1 02:54:47 24° S 02:57:24 75° E 03:01:51 10° NNE
NOSS 3-2 (C) 4.2 02:54:24 12° WSW 03:00:07 52° NW 03:06:55 10° NE
JB-3 4.3 02:56:22 10° N 03:00:26 81° WNW 03:02:31 27° SSW
CENTAUR R/B 2.8 02:58:36 22° SSW 03:02:45 65° SE 03:09:42 10° NE
CZ-2D R/B 4.2 02:59:03 10° NE 03:02:51 20° E 03:06:40 10° SE
Cosmos 1666 Rocket 3.5 03:02:00 26° SSW 03:04:25 78° W 03:08:46 10° N
Cosmos 2344 3.9 02:57:59 17° SW 03:04:25 76° NW 03:13:58 10° NE
Cosmos 371 Rocket 3.2 03:01:29 10° NNW 03:06:22 83° WSW 03:11:13 10° SSE
NPP 3.7 03:01:09 10° NNE 03:06:35 76° ESE 03:10:32 19° S
SL-23 DEB 3.9 03:04:13 10° WNW 03:07:22 58° N 03:10:44 10° E
Abrixas 3.0 03:07:28 35° SSW 03:08:09 41° SSE 03:11:06 10° E
Cosmos 2082 Rocket 2.8 03:06:50 18° WSW 03:10:52 49° NW 03:16:24 10° NNE
Cosmos 1697 Rocket 3.5 03:05:56 10° NW 03:10:53 32° WSW 03:13:41 21° SSW
CBERS-1 4.2 03:06:24 10° NNE 03:11:32 70° ESE 03:15:26 17° S
ADEOS 4.1 03:07:20 10° NNE 03:12:28 53° E 03:16:55 14° S
Aureole 1 Rocket 4.2 03:08:40 10° NW 03:12:34 31° WSW 03:15:08 21° SSW
ASTEX 1 4.5 03:09:12 10° N 03:13:39 33° WNW 03:16:33 18° SW
Cosmos 1455 2.8 03:10:55 10° N 03:14:41 55° ENE 03:18:24 10° SSE
Cosmos 1470 Rocket 4.0 03:11:21 16° S 03:14:49 58° E 03:19:11 10° NNE
SL-16 R/B 3.3 03:10:32 10° SE 03:16:35 54° ENE 03:22:41 10° N
Cosmos 773 Rocket 4.2 03:11:34 10° NNW 03:16:44 74° ENE 03:21:52 10° SSE
USA 161 1.6 03:17:10 20° SSE 03:18:34 54° ENE 03:20:56 10° N
Meteor 1-4 Rocket 2.7 03:15:21 10° N 03:19:06 76° ENE 03:22:38 12° SSE
Cosmos 1933 Rocket 3.9 03:16:11 16° S 03:19:37 62° E 03:23:59 10° NNE
ARIANE 5 R/B 3.7 03:16:05 10° NNE 03:20:51 37° E 03:25:31 10° SSE
ATLAS CENTAUR R/B 4.2 03:16:47 10° NNW 03:20:52 25° NNE 03:24:43 10° E
ISS -3.3 03:18:26 10° WNW 03:21:43 80° NNE 03:24:59 10° ESE
Cosmos 1869 3.8 03:19:24 10° N 03:23:21 59° ENE 03:27:16 10° SSE
Cosmos 1833 Rocket 3.2 03:19:52 17° SW 03:24:05 50° NW 03:29:36 10° NNE
AQUA 3.8 03:19:39 10° NNE 03:24:27 90° NW 03:28:05 17° SSW
Cosmos 1726 3.0 03:23:58 10° NNW 03:27:19 33° W 03:29:03 21° SW
Cosmos 1386 Rocket 4.5 03:22:41 16° SSW 03:27:49 82° W 03:34:01 10° N
SL-14 R/B 3.6 03:25:49 22° SW 03:28:02 50° WNW 03:31:49 10° N
Cosmos 2360 4.4 03:23:05 10° NW 03:28:34 50° WSW 03:34:03 10° S
CZ-4C R/B 3.7 03:24:33 10° W 03:29:48 35° NNW 03:35:42 10° NE
Cosmos 1745 Rocket 4.3 03:27:19 17° SSW 03:32:13 59° WNW 03:38:30 10° N
Meteor 2-10 4.0 03:27:23 10° NNW 03:32:33 69° W 03:37:50 10° S
Cosmos 2058 4.1 03:32:13 17° WSW 03:34:42 30° WNW 03:38:24 10° N
Cosmos 2292 Rocket 4.1 03:32:20 10° SSE 03:35:12 37° E 03:38:31 10° NNE
Nadezhda 1 Rocket 4.3 03:29:47 10° NNW 03:35:41 48° W 03:40:42 14° SSW
ATLAS 5 CENTAUR R/B 3.9 03:33:11 10° SSE 03:36:39 19° ESE 03:40:17 10° ENE
Okean O Rocket 4.1 03:35:38 10° NE 03:38:36 17° E 03:41:32 10° SE
Sich 1 3.8 03:37:35 17° SW 03:40:31 40° WNW 03:44:44 10° N
Cosmos 1703 3.4 03:38:16 18° SSW 03:41:08 62° WNW 03:45:04 10° N
IRS-1C 4.1 03:37:21 10° NNE 03:42:44 80° WNW 03:47:28 13° SSW
Cosmos 1709 Rocket 4.1 03:37:43 10° S 03:43:59 85° E 03:50:17 10° N
Cosmos 1933 4.1 03:40:42 10° N 03:44:40 54° ENE 03:48:37 10° SSE
SL-16 R/B 2.2 03:43:10 10° NW 03:48:46 62° WSW 03:54:21 10° SSE
Cosmos 1862 Rocket 3.8 03:45:47 10° NNW 03:50:11 55° W 03:54:32 10° S
Cosmos 1626 2.1 03:47:26 13° S 03:50:48 86° E 03:54:35 10° N
Lacrosse 5 rocket 1.5 03:46:36 10° WNW 03:50:53 57° SW 03:55:19 10° SE
Cosmos 1271 Rocket 3.1 03:50:03 10° NNW 03:53:41 42° W 03:56:56 12° SSW
EO 1 Del DPAF 3.2 03:50:01 10° S 03:53:54 73° WSW 03:57:51 10° NNW
Cosmos 2112 Rocket 4.0 03:51:55 10° NNW 03:57:10 87° ENE 04:02:21 10° SSE
SL-08 R/B 4.5 03:55:03 14° SW 03:58:23 27° W 04:02:33 10° NW
Cosmos 2221 Rocket 3.8 03:54:25 10° N 03:58:56 76° E 04:03:27 10° SSE
UNK 3.7 03:55:39 10° SSE 04:00:14 88° WSW 04:04:51 10° NNW
Cosmos 2322 Rocket 2.5 03:57:05 10° NW 04:02:27 46° WSW 04:07:45 10° S
USA 215 3.4 03:56:18 10° NE 04:02:52 82° NNW 04:09:25 10° WSW
Resurs 1-4 Rocket 2.6 03:57:43 10° NNE 04:03:00 61° E 04:08:17 10° S
BREEZE-M TANK 2.3 04:01:12 10° WSW 04:05:21 43° S 04:07:44 10° ESE
Cosmos 2219 Rocket 4.4 04:09:05 10° NNW 04:14:01 30° NE 04:18:54 10° ESE
Lacrosse 5 3.3 04:13:02 10° W 04:16:12 17° WSW 04:19:21 10° SSW
Cosmos 1869 Rocket 3.9 04:15:32 10° S 04:19:53 70° E 04:24:19 10° NNE
ERS-2 4.3 04:21:24 10° NNW 04:23:31 15° WNW 04:25:38 10° W
USA 129 2.2 04:23:17 15° SW 04:23:41 18° W 04:24:41 10° NW
BREEZE-M DEB (TANK) 3.6 04:20:16 10° SW 04:23:43 63° SSE 04:35:26 10° ENE
Cosmos 968 Rocket 4.1 04:19:02 10° SW 04:23:53 43° WNW 04:28:49 10° NNE
Meteor 1-26 Rocket 4.3 04:18:20 10° N 04:23:57 85° ENE 04:29:28 10° SSE
ASTRO F (AKARI) 4.2 04:21:39 10° SSE 04:24:56 81° WSW 04:28:09 10° NNW
CRYOSAT 2 4.4 04:20:14 10° N 04:25:08 78° W 04:29:59 10° SSW
Cosmos 2181 Rocket 4.5 04:23:35 10° NNW 04:29:17 41° W 04:35:01 10° SSW
SME Rocket 3.7 04:25:55 10° SSE 04:32:27 77° WSW 04:36:57 10° NNW
Cosmos 1980 Rocket 4.0 04:30:57 10° WNW 04:32:41 11° W 04:34:25 10° WSW
Cosmos 2360 Rocket 2.2 04:28:56 10° NNW 04:34:32 67° WSW 04:40:06 10° SSE
